Stündliche Wetter Abbevillers

Heute, 23 Juni, Mittwoch

Zeit Temperatur Niederschläge Wind Luftdruck Luftfeuchtigkeit
00:00 +13°C° 0 mm 1 m/S 713 mmHg 95%
01:00 +13°C° 0 mm 1 m/S 713 mmHg 95%
02:00 +13°C° 0 mm 1 m/S 713 mmHg 95%
03:00 +12°C° 0 mm 0 m/S 713 mmHg 95%
04:00 +13°C° 0 mm 0 m/S 713 mmHg 94%
05:00 +14°C° 0 mm 0 m/S 713 mmHg 92%
06:00 +15°C° 0 mm 0 m/S 714 mmHg 91%
07:00 +18°C° 0.1 mm 1 m/S 714 mmHg 86%
08:00 +19°C° 0.1 mm 1 m/S 714 mmHg 80%
09:00 +20°C° 0.1 mm 2 m/S 714 mmHg 75%
10:00 +21°C° 0.4 mm 2 m/S 714 mmHg 73%
11:00 +21°C° 0.4 mm 2 m/S 714 mmHg 71%
12:00 +23°C° 0.4 mm 1 m/S 714 mmHg 69%
13:00 +23°C° 0.8 mm 1 m/S 714 mmHg 72%
14:00 +23°C° 0.8 mm 1 m/S 714 mmHg 75%
15:00 +22°C° 0.8 mm 1 m/S 714 mmHg 77%
16:00 +21°C° 1.3 mm 1 m/S 714 mmHg 81%
17:00 +20°C° 1.3 mm 1 m/S 714 mmHg 86%
18:00 +19°C° 1.3 mm 1 m/S 714 mmHg 90%
19:00 +18°C° 2.1 mm 1 m/S 714 mmHg 91%
20:00 +16°C° 2.1 mm 1 m/S 714 mmHg 93%
21:00 +15°C° 2.1 mm 1 m/S 715 mmHg 95%
22:00 +15°C° 0.2 mm 1 m/S 715 mmHg 95%
23:00 +14°C° 0.2 mm 1 m/S 714 mmHg 95%

Morgen, 24 Juni, Donnerstag

Zeit Temperatur Niederschläge Wind Luftdruck Luftfeuchtigkeit
00:00 +14°C° 0.2 mm 1 m/S 714 mmHg 94%
01:00 +13°C° 0 mm 1 m/S 714 mmHg 94%
02:00 +13°C° 0 mm 1 m/S 714 mmHg 94%
03:00 +12°C° 0 mm 1 m/S 713 mmHg 94%
04:00 +13°C° 0.1 mm 1 m/S 714 mmHg 93%
05:00 +14°C° 0.1 mm 1 m/S 714 mmHg 93%
06:00 +15°C° 0.1 mm 1 m/S 714 mmHg 92%
07:00 +16°C° 0.2 mm 1 m/S 714 mmHg 89%
08:00 +18°C° 0.2 mm 1 m/S 714 mmHg 86%
09:00 +19°C° 0.2 mm 1 m/S 715 mmHg 83%
10:00 +18°C° 0.9 mm 2 m/S 715 mmHg 84%
11:00 +18°C° 0.9 mm 2 m/S 715 mmHg 86%
12:00 +18°C° 0.9 mm 2 m/S 715 mmHg 88%
13:00 +18°C° 1 mm 2 m/S 715 mmHg 89%
14:00 +18°C° 1 mm 3 m/S 715 mmHg 91%
15:00 +17°C° 1 mm 3 m/S 715 mmHg 92%
16:00 +17°C° 1.1 mm 3 m/S 715 mmHg 93%
17:00 +16°C° 1.1 mm 3 m/S 715 mmHg 94%
18:00 +14°C° 1.1 mm 3 m/S 716 mmHg 96%
19:00 +14°C° 0.1 mm 3 m/S 716 mmHg 96%
20:00 +13°C° 0.1 mm 3 m/S 716 mmHg 96%
21:00 +13°C° 0.1 mm 2 m/S 716 mmHg 97%
22:00 +13°C° 0 mm 2 m/S 716 mmHg 97%
23:00 +13°C° 0 mm 2 m/S 716 mmHg 97%

übermorgen, 25 Juni, Freitag

Zeit Temperatur Niederschläge Wind Luftdruck Luftfeuchtigkeit
00:00 +13°C° 0 mm 2 m/S 716 mmHg 97%
01:00 +13°C° 0.2 mm 2 m/S 716 mmHg 97%
02:00 +13°C° 0.2 mm 2 m/S 716 mmHg 97%
03:00 +13°C° 0.2 mm 2 m/S 716 mmHg 97%
04:00 +13°C° 0.2 mm 2 m/S 716 mmHg 97%
05:00 +13°C° 0.2 mm 2 m/S 716 mmHg 97%
06:00 +13°C° 0.2 mm 2 m/S 716 mmHg 97%
07:00 +13°C° 0.1 mm 2 m/S 716 mmHg 96%
08:00 +14°C° 0.1 mm 2 m/S 716 mmHg 95%
09:00 +14°C° 0.1 mm 2 m/S 716 mmHg 94%
10:00 +14°C° 0.1 mm 2 m/S 716 mmHg 90%
11:00 +15°C° 0.1 mm 2 m/S 716 mmHg 87%
12:00 +16°C° 0.1 mm 1 m/S 716 mmHg 83%
13:00 +17°C° 0.1 mm 2 m/S 716 mmHg 78%
14:00 +18°C° 0.1 mm 2 m/S 716 mmHg 72%
15:00 +19°C° 0.1 mm 2 m/S 716 mmHg 66%
16:00 +18°C° 0.2 mm 2 m/S 716 mmHg 73%
17:00 +19°C° 0.2 mm 1 m/S 715 mmHg 79%
18:00 +18°C° 0.2 mm 1 m/S 715 mmHg 86%
19:00 +15°C° 0 mm 1 m/S 715 mmHg 88%
20:00 +14°C° 0 mm 1 m/S 715 mmHg 90%
21:00 +13°C° 0 mm 1 m/S 715 mmHg 92%
22:00 +12°C° 0 mm 1 m/S 715 mmHg 92%
23:00 +12°C° 0 mm 1 m/S 715 mmHg 93%

26 Juni, Samstag

Zeit Temperatur Niederschläge Wind Luftdruck Luftfeuchtigkeit
00:00 +11°C° 0 mm 1 m/S 715 mmHg 93%
01:00 +11°C° 0 mm 1 m/S 715 mmHg 93%
02:00 +11°C° 0 mm 1 m/S 714 mmHg 93%
03:00 +11°C° 0 mm 1 m/S 714 mmHg 94%
04:00 +12°C° 0 mm 1 m/S 714 mmHg 92%
05:00 +13°C° 0 mm 1 m/S 714 mmHg 91%
06:00 +14°C° 0 mm 1 m/S 715 mmHg 89%
07:00 +16°C° 0 mm 1 m/S 715 mmHg 82%
08:00 +19°C° 0 mm 1 m/S 715 mmHg 74%
09:00 +21°C° 0 mm 1 m/S 715 mmHg 67%
10:00 +21°C° 0 mm 2 m/S 715 mmHg 63%
11:00 +23°C° 0 mm 2 m/S 714 mmHg 58%
12:00 +24°C° 0 mm 2 m/S 714 mmHg 54%
13:00 +24°C° 0 mm 2 m/S 714 mmHg 55%
14:00 +25°C° 0 mm 2 m/S 714 mmHg 56%
15:00 +25°C° 0 mm 2 m/S 714 mmHg 57%
16:00 +24°C° 0 mm 1 m/S 714 mmHg 65%
17:00 +23°C° 0 mm 1 m/S 714 mmHg 73%
18:00 +22°C° 0 mm 1 m/S 714 mmHg 80%
19:00 +20°C° 0 mm 1 m/S 714 mmHg 83%
20:00 +19°C° 0 mm 1 m/S 713 mmHg 86%
21:00 +16°C° 0 mm 1 m/S 713 mmHg 88%
22:00 +16°C° 0 mm 1 m/S 713 mmHg 87%
23:00 +15°C° 0 mm 1 m/S 713 mmHg 85%

27 Juni, Sonntag

Zeit Temperatur Niederschläge Wind Luftdruck Luftfeuchtigkeit
00:00 +15°C° 0 mm 1 m/S 713 mmHg 84%
01:00 +15°C° 0 mm 1 m/S 712 mmHg 84%
02:00 +15°C° 0 mm 1 m/S 712 mmHg 84%
03:00 +14°C° 0 mm 1 m/S 712 mmHg 84%
04:00 +16°C° 0 mm 1 m/S 712 mmHg 81%
05:00 +18°C° 0 mm 1 m/S 713 mmHg 78%
06:00 +17°C° 0 mm 0 m/S 713 mmHg 76%
07:00 +21°C° 0 mm 1 m/S 713 mmHg 69%
08:00 +23°C° 0 mm 1 m/S 714 mmHg 63%
09:00 +25°C° 0 mm 1 m/S 714 mmHg 57%
10:00 +24°C° 0 mm 1 m/S 714 mmHg 59%
11:00 +24°C° 0 mm 2 m/S 714 mmHg 61%
12:00 +24°C° 0 mm 3 m/S 714 mmHg 63%
13:00 +22°C° 0.1 mm 3 m/S 714 mmHg 69%
14:00 +21°C° 0.1 mm 2 m/S 714 mmHg 75%
15:00 +20°C° 0.1 mm 2 m/S 714 mmHg 81%
16:00 +21°C° 0.3 mm 1 m/S 714 mmHg 85%
17:00 +20°C° 0.3 mm 1 m/S 714 mmHg 88%
18:00 +20°C° 0.3 mm 1 m/S 714 mmHg 92%
19:00 +19°C° 0.8 mm 1 m/S 714 mmHg 93%
20:00 +18°C° 0.8 mm 1 m/S 714 mmHg 94%
21:00 +16°C° 0.8 mm 1 m/S 714 mmHg 95%
22:00 +16°C° 0.6 mm 1 m/S 714 mmHg 96%
23:00 +16°C° 0.6 mm 1 m/S 714 mmHg 96%

28 Juni, Montag

Zeit Temperatur Niederschläge Wind Luftdruck Luftfeuchtigkeit
00:00 +16°C° 0.6 mm 1 m/S 714 mmHg 96%
01:00 +15°C° 0.3 mm 1 m/S 714 mmHg 96%
02:00 +15°C° 0.3 mm 1 m/S 713 mmHg 96%
03:00 +15°C° 0.3 mm 1 m/S 713 mmHg 96%
04:00 +15°C° 0.1 mm 1 m/S 714 mmHg 96%
05:00 +16°C° 0.1 mm 1 m/S 714 mmHg 95%
06:00 +18°C° 0.1 mm 1 m/S 714 mmHg 95%
07:00 +18°C° 0.3 mm 1 m/S 714 mmHg 94%
08:00 +19°C° 0.3 mm 1 m/S 714 mmHg 93%
09:00 +19°C° 0.3 mm 1 m/S 714 mmHg 92%
10:00 +18°C° 0.3 mm 2 m/S 714 mmHg 91%
11:00 +19°C° 0.3 mm 2 m/S 715 mmHg 91%
12:00 +19°C° 0.3 mm 2 m/S 715 mmHg 90%
13:00 +18°C° 0.5 mm 3 m/S 715 mmHg 91%
14:00 +18°C° 0.5 mm 3 m/S 714 mmHg 93%
15:00 +17°C° 0.5 mm 3 m/S 714 mmHg 94%
16:00 +16°C° 1.1 mm 3 m/S 714 mmHg 95%
17:00 +16°C° 1.1 mm 3 m/S 714 mmHg 96%
18:00 +14°C° 1.1 mm 3 m/S 714 mmHg 97%
19:00 +14°C° 1.7 mm 3 m/S 714 mmHg 97%
20:00 +14°C° 1.7 mm 2 m/S 714 mmHg 98%
21:00 +14°C° 1.7 mm 1 m/S 715 mmHg 98%
22:00 +14°C° 1.8 mm 1 m/S 714 mmHg 98%
23:00 +14°C° 1.8 mm 1 m/S 714 mmHg 98%
Mehr zeigen

Wir brauchen deine Erlaubnis

Meteoprog und unser Service Anbieter werden persönliche Daten aufbewahren, so wie Cookies, Geräte Bezeichnung oder ähnliche Technologien von deinem Gerät und Prozess, so wie Persönliche Daten Inhalte und Werbungen, genauso wie social Media und den Verkehr zu analysieren.

  • Aufbewahrung und/oder Zugang zu deiner Geräte Informationen.

    Cookies, Geräte Bezeichnung oder andere Informationen, können aufbewahrt oder Zugang zu deinem Gerät erhalten, für den Grund, der oben angegeben wird.

  • Personalisierte Werbung und Inhalte, Messungen, Einblick in das Publikum und Produkt Entwicklung.

    Werbungen und Inhalte können personalisiert werden, basierend auf ein Profil. Mehr Daten können besser personalisierte Werbungen und Inhalte hinzufügen. Werbung und Inhalte können gezeigt und gemessen werden. Einblicke über das Publikum, welche die Werbung gesehen haben und den Inhalt, können abgeleitet werden. So wie Daten können genutzt werden, um es zu verbessern oder die Benutzer Erfahrung zu verbessern das System und die Software.

Wenn du “Ich stimme zu” klickst, erlaubst du uns, die Cookies zu benutzen die Geräte Bezeichnung, den Web oder ähnliche Technologien zu benutzen. Deine Settings, können in deinem Gerät bei deinem Browser geändert werden.

Für den bestimmten Zweck, berechtigten Interessen beruhen darauf, mehr als auf den Inhalt. Du kannst mehr darüber in unseren Privaten und Cookie Politik lesen.